sat.trackr.live / text

‹ back to catalog

YAOGAN-30 10C

NORAD 48863 · 2021-055D

PAYLOAD ACTIVE UNKNOWN

§ Identity

Operator
Country
PRC
Launch date
2021-06-18
Launch site
XICLF
Launch vehicle
Mass (kg)
RCS (m²)

External: N2YO · Heavens-Above · Gunter

§ Orbital elements

Epoch: 2026-09-20T13:03:17.341344Z

Period
95.81 min
Inclination
34.9959°
Eccentricity
0.0003805
Mean motion
15.03045433 rev/d
Perigee alt
554.9 km
Apogee alt
560.2 km
Semi-major
6,935.6 km
B*
1.1543e-4
RAAN
290.1819°
Arg perigee
275.7711°
Mean anomaly
84.2564°
Rev number
28,724

§ Raw data

YAOGAN-30 10C1 48863U 21055D   26263.54395071  .00001557  00000+0  11543-3 0  99992 48863  34.9959 290.1819 0003805 275.7711  84.2564 15.03045433287246

JSON: /api/v1/satellites/48863 · /tle

For live sub-satellite position, see the globe view (requires WebGL).

§ Visibility from observer

Set your observer location to see the next 7 days of passes ≥ 10°. The values pass through the URL so the page stays shareable.

No JS? Fill the form by hand. The geolocation button needs JavaScript.